Weather reports worldwide

Advertisment
Chillingham Barns, United Kingdom (99196): temperature & dewpoint: 17.01.2019 02:00:00 - 23.01.2019 02:00:00 (GMT)Chillingham Barns, United Kingdom (99196): precipitation: 17.01.2019 02:00:00 - 23.01.2019 02:00:00 (GMT)
Date & Time tt [°C] td [°C] rr [mm]
23.01.2019 02:00:00 - - -
23.01.2019 01:00:00 -1,9 -3,4 0,0
23.01.2019 00:00:00 -1,9 -3,1 0,0
22.01.2019 23:00:00 -1,4 -2,6 0,0
22.01.2019 22:00:00 -1,5 -3,2 0,0
22.01.2019 21:00:00 -0,6 -2,8 0,0
22.01.2019 20:00:00 -0,7 -2,7 0,0
22.01.2019 19:00:00 0,4 -2,3 0,0
22.01.2019 18:00:00 1,4 -1,4 0,0
22.01.2019 17:00:00 1,8 -1,3 0,0
22.01.2019 16:00:00 2,2 -1,5 0,0
22.01.2019 15:00:00 3,0 -1,1 0,0
22.01.2019 14:00:00 4,1 -0,2 0,0
22.01.2019 13:00:00 3,4 -1,0 0,0
22.01.2019 12:00:00 4,0 -0,4 0,0
22.01.2019 11:00:00 2,7 -0,8 0,0
22.01.2019 10:00:00 2,0 -1,2 0,0
22.01.2019 09:00:00 1,7 -1,6 0,0
22.01.2019 08:00:00 1,4 -1,3 0,0
22.01.2019 07:00:00 1,6 -0,9 0,0
22.01.2019 06:00:00 1,9 -0,6 0,0
22.01.2019 05:00:00 2,4 -0,2 0,0
22.01.2019 04:00:00 2,3 0,0 0,0
22.01.2019 03:00:00 2,6 0,2 0,0
22.01.2019 02:00:00 2,3 0,5 0,2
22.01.2019 01:00:00 3,1 2,2 0,2
22.01.2019 00:00:00 3,4 2,0 0,0
21.01.2019 23:00:00 3,4 1,7 0,0
21.01.2019 22:00:00 3,4 1,2 0,0
21.01.2019 21:00:00 3,3 0,8 0,0
21.01.2019 20:00:00 3,7 1,0 0,0
21.01.2019 19:00:00 3,8 0,8 0,0
21.01.2019 18:00:00 2,9 0,6 0,0
21.01.2019 17:00:00 3,2 0,5 0,0
21.01.2019 16:00:00 3,2 0,1 0,0
21.01.2019 15:00:00 2,8 0,0 0,0
21.01.2019 14:00:00 2,7 0,1 0,0
21.01.2019 13:00:00 2,5 -0,5 0,0
21.01.2019 12:00:00 2,9 -0,5 0,0
21.01.2019 11:00:00 1,9 -1,4 0,0
21.01.2019 10:00:00 0,3 -2,0 0,0
21.01.2019 09:00:00 -3,0 -3,6 0,0
21.01.2019 08:00:00 -4,2 -5,1 0,0
21.01.2019 07:00:00 -4,0 -4,7 0,0
21.01.2019 06:00:00 -4,1 -4,8 0,0
21.01.2019 05:00:00 -3,8 -4,5 0,0
21.01.2019 04:00:00 -3,3 -3,9 0,0
21.01.2019 03:00:00 -2,4 -3,0 0,0
21.01.2019 02:00:00 -2,6 -3,4 0,0
21.01.2019 01:00:00 -1,7 -2,7 0,0
21.01.2019 00:00:00 -0,5 -1,7 0,0
20.01.2019 23:00:00 0,7 -0,4 0,0
20.01.2019 22:00:00 0,6 -0,3 0,2
20.01.2019 21:00:00 1,4 0,4 0,0
20.01.2019 20:00:00 2,2 1,1 0,0
20.01.2019 19:00:00 2,8 1,2 0,0
20.01.2019 18:00:00 3,5 1,7 0,0
20.01.2019 17:00:00 4,6 2,6 0,0
20.01.2019 16:00:00 5,2 2,5 0,0
20.01.2019 15:00:00 5,5 2,2 0,0
20.01.2019 14:00:00 5,1 1,6 0,0
20.01.2019 13:00:00 4,4 1,8 0,0
20.01.2019 12:00:00 3,8 2,1 0,0
20.01.2019 11:00:00 1,9 1,5 0,0
20.01.2019 10:00:00 1,3 1,0 0,0
20.01.2019 09:00:00 0,7 0,3 0,0
20.01.2019 08:00:00 1,0 0,7 0,0
20.01.2019 07:00:00 1,0 0,5 0,0
20.01.2019 06:00:00 1,1 0,6 0,0
20.01.2019 05:00:00 1,2 0,7 0,0
20.01.2019 04:00:00 1,1 0,6 0,0
20.01.2019 03:00:00 1,1 0,6 0,0
20.01.2019 02:00:00 1,3 0,6 0,0
20.01.2019 01:00:00 1,2 0,4 0,0
20.01.2019 00:00:00 1,6 0,6 0,0
19.01.2019 23:00:00 2,1 1,0 0,0
19.01.2019 22:00:00 2,2 1,2 0,0
19.01.2019 21:00:00 2,4 1,2 0,0
19.01.2019 20:00:00 2,4 1,2 0,0
19.01.2019 19:00:00 2,1 0,9 0,0
19.01.2019 18:00:00 2,4 1,1 0,0
19.01.2019 17:00:00 2,5 1,1 0,0
19.01.2019 16:00:00 2,7 1,3 0,0
19.01.2019 15:00:00 2,8 1,3 0,0
19.01.2019 14:00:00 3,0 1,5 0,0
19.01.2019 13:00:00 2,7 1,3 0,0
19.01.2019 12:00:00 2,4 1,1 0,0
19.01.2019 11:00:00 2,3 1,1 0,0
19.01.2019 10:00:00 1,8 0,6 0,0
19.01.2019 09:00:00 1,6 0,5 0,0
19.01.2019 08:00:00 1,2 0,0 0,0
19.01.2019 07:00:00 0,9 -0,2 0,0
19.01.2019 06:00:00 0,8 -0,3 0,0
19.01.2019 05:00:00 1,1 -0,3 0,0
19.01.2019 04:00:00 1,5 0,0 0,0
19.01.2019 03:00:00 1,5 0,0 0,0
19.01.2019 02:00:00 1,6 0,0 0,0
19.01.2019 01:00:00 1,6 -0,1 0,0
19.01.2019 00:00:00 1,7 0,0 0,0
18.01.2019 23:00:00 1,7 -0,1 0,0
18.01.2019 22:00:00 1,7 -0,6 0,0
18.01.2019 21:00:00 1,6 -0,8 0,0
18.01.2019 20:00:00 1,7 -1,0 0,0
18.01.2019 19:00:00 1,9 -1,6 0,0
18.01.2019 18:00:00 2,0 -1,8 0,0
18.01.2019 17:00:00 2,2 -2,2 0,0
18.01.2019 16:00:00 1,9 -2,6 0,0
18.01.2019 15:00:00 1,9 -2,8 0,0
18.01.2019 14:00:00 2,0 -3,1 0,0
18.01.2019 13:00:00 2,3 -2,5 0,0
18.01.2019 12:00:00 2,0 -2,2 0,0
18.01.2019 11:00:00 1,1 -2,4 0,0
18.01.2019 10:00:00 -0,7 -3,6 0,0
18.01.2019 09:00:00 -0,5 -3,2 0,0
18.01.2019 08:00:00 -0,9 -3,4 0,0
18.01.2019 07:00:00 -2,3 -4,5 0,0
18.01.2019 06:00:00 -1,5 -3,7 0,0
18.01.2019 05:00:00 -2,5 -4,4 0,0
18.01.2019 04:00:00 -1,9 -4,0 0,0
18.01.2019 03:00:00 -2,3 -3,6 0,0
18.01.2019 02:00:00 -2,0 -3,2 0,0
18.01.2019 01:00:00 -2,0 -3,5 0,0
18.01.2019 00:00:00 -1,9 -4,1 0,0
17.01.2019 23:00:00 -1,9 -3,6 0,0
17.01.2019 22:00:00 -1,3 -3,4 0,0
17.01.2019 21:00:00 -0,6 -3,3 0,0
17.01.2019 20:00:00 0,4 -3,2 0,0
17.01.2019 19:00:00 0,8 -2,7 0,0
17.01.2019 18:00:00 1,5 -3,0 0,0
17.01.2019 17:00:00 2,7 -2,7 0,0
17.01.2019 16:00:00 2,8 -2,2 0,0
17.01.2019 15:00:00 3,4 -2,0 0,0
17.01.2019 14:00:00 3,6 -1,6 0,0
17.01.2019 13:00:00 3,0 -2,0 0,0
17.01.2019 12:00:00 3,1 -1,9 0,0
17.01.2019 11:00:00 1,9 -2,2 0,0
17.01.2019 10:00:00 1,5 -2,7 0,0
17.01.2019 09:00:00 1,3 -3,3 0,0
17.01.2019 08:00:00 0,8 -3,8 0,0
17.01.2019 07:00:00 0,6 -4,0 0,0
17.01.2019 06:00:00 0,7 -4,7 0,0
17.01.2019 05:00:00 0,1 -4,5 0,0
17.01.2019 04:00:00 0,4 -4,8 0,0
17.01.2019 03:00:00 0,4 -4,4 0,0
17.01.2019 02:00:00 1,3 -3,8 0,0

tt = temperature
td = dewpoint
rr = precipitation

Next stations